,,,PA_Meas_PMT16A,,PR_Meas_QMR101_102,,RH_Meas_QMH101,,SR_Meas_QMS101,,TA_Meas_QMH101,,GenWind,,GenWind,
date,time,status,PA,status,PR,status,RH,status,SR,status,TA,status,DirAvg,status,SpdAvg,
2010-04-01, 00:00:05,VALID,1004.72,VALID,0,VALID,95.7653,VALID,0,VALID,24.4043,VALID,3,VALID,0,
2010-04-01, 00:01:05,VALID,1004.74,VALID,0,VALID,95.7577,VALID,0,VALID,24.383,VALID,3,VALID,0,
2010-04-01, 00:02:05,VALID,1004.74,VALID,0,VALID,95.7501,VALID,0,VALID,24.3849,VALID,3,VALID,0,
2010-04-01, 00:03:05,VALID,1004.73,VALID,0,VALID,95.7577,VALID,0,VALID,24.3849,VALID,3,VALID,0,
2010-04-01, 00:04:05,VALID,1004.72,VALID,0,VALID,95.7424,VALID,0,VALID,24.383,VALID,3,VALID,0,
2010-04-01, 00:05:05,VALID,1004.72,VALID,0,VALID,95.7577,VALID,0,VALID,24.3654,VALID,3,VALID,0,
2010-04-01, 00:06:05,VALID,1004.73,VALID,0,VALID,95.7424,VALID,0,VALID,24.3246,VALID,3,VALID,0,
2010-04-01, 00:07:05,VALID,1004.72,VALID,0,VALID,95.7577,VALID,0,VALID,24.3052,VALID,3,VALID,0.396094,
2010-04-01, 00:08:05,VALID,1004.75,VALID,0,VALID,95.7577,VALID,0,VALID,24.3052,VALID,3,VALID,0.335938,
2010-04-01, 00:09:05,VALID,1004.73,VALID,0,VALID,95.7577,VALID,0,VALID,24.2875,VALID,3,VALID,0.190625,
2010-04-01, 00:10:05,VALID,1004.74,VALID,0,VALID,95.7424,VALID,0,VALID,24.2468,VALID,3,VALID,0.180469,
2010-04-01, 00:11:05,VALID,1004.73,VALID,0,VALID,95.7501,VALID,0,VALID,24.2681,VALID,3,VALID,0.221094,
2010-04-01, 00:12:05,VALID,1004.73,VALID,0,VALID,95.7577,VALID,0,VALID,24.2486,VALID,3,VALID,0.191406,
2010-04-01, 00:13:05,VALID,1004.72,VALID,0,VALID,95.7424,VALID,0,VALID,24.2097,VALID,3,VALID,0.294141,
2010-04-01, 00:14:05,VALID,1004.74,VALID,0,VALID,95.7424,VALID,0,VALID,24.2097,VALID,3,VALID,0.117188,
2010-04-01, 00:15:05,VALID,1004.69,VALID,0,VALID,95.7424,VALID,0,VALID,24.2097,VALID,3,VALID,0.248047,
2010-04-01, 00:16:05,VALID,1004.71,VALID,0,VALID,95.7653,VALID,0,VALID,24.2097,VALID,3,VALID,0.132422,
2010-04-01, 00:17:05,VALID,1004.69,VALID,0,VALID,95.7806,VALID,0,VALID,24.1884,VALID,3,VALID,0.338672,
2010-04-01, 00:18:05,VALID,1004.65,VALID,0,VALID,95.7806,VALID,0,VALID,24.2097,VALID,5,VALID,0.622266,
2010-04-01, 00:19:05,VALID,1004.63,VALID,0,VALID,95.7959,VALID,0,VALID,24.1884,VALID,8,VALID,0.771875,
2010-04-01, 00:20:05,VALID,1004.64,VALID,0,VALID,95.7959,VALID,0,VALID,24.2078,VALID,13,VALID,0.2125,
2010-04-01, 00:21:05,VALID,1004.6,VALID,0,VALID,95.8264,VALID,0,VALID,24.2468,VALID,13,VALID,0.151172,
2010-04-01, 00:22:05,VALID,1004.61,VALID,0,VALID,95.8493,VALID,0,VALID,24.2681,VALID,13,VALID,0.137891,
2010-04-01, 00:23:05,VALID,1004.57,VALID,0,VALID,95.8493,VALID,0,VALID,24.2857,VALID,14,VALID,0.009375,
2010-04-01, 00:24:05,VALID,1004.57,VALID,0,VALID,95.8645,VALID,0,VALID,24.3052,VALID,14,VALID,0.351953,
2010-04-01, 00:25:05,VALID,1004.56,VALID,0,VALID,95.8874,VALID,0,VALID,24.307,VALID,14,VALID,0.388672,
2010-04-01, 00:26:05,VALID,1004.54,VALID,0,VALID,95.8874,VALID,0,VALID,24.2857,VALID,358,VALID,0.798047,
2010-04-01, 00:27:05,VALID,1004.53,VALID,0,VALID,95.895,VALID,0,VALID,24.3052,VALID,1,VALID,0.136328,
2010-04-01, 00:28:05,VALID,1004.54,VALID,0,VALID,95.9103,VALID,0,VALID,24.3246,VALID,351,VALID,0,
2010-04-01, 00:29:05,VALID,1004.5,VALID,0,VALID,95.895,VALID,0,VALID,24.3441,VALID,293,VALID,0.567187,
2010-04-01, 00:30:05,VALID,1004.49,VALID,0,VALID,95.9179,VALID,0,VALID,24.383,VALID,290,VALID,0.0597656,
2010-04-01, 00:31:05,VALID,1004.46,VALID,0,VALID,95.9103,VALID,0,VALID,24.3849,VALID,290,VALID,0,
2010-04-01, 00:32:05,VALID,1004.46,VALID,0,VALID,95.9255,VALID,0,VALID,24.4238,VALID,333,VALID,0.259766,
2010-04-01, 00:33:05,VALID,1004.45,VALID,0,VALID,95.895,VALID,0,VALID,24.4025,VALID,333,VALID,0.00429688,
2010-04-01, 00:34:05,VALID,1004.44,VALID,0,VALID,95.895,VALID,0,VALID,24.422,VALID,333,VALID,0,
2010-04-01, 00:35:05,VALID,1004.42,VALID,0,VALID,95.9027,VALID,0,VALID,24.4414,VALID,333,VALID,0.0242187,
2010-04-01, 00:36:05,VALID,1004.45,VALID,0,VALID,95.9027,VALID,0,VALID,24.4822,VALID,334,VALID,0.343359,
2010-04-01, 00:37:05,VALID,1004.46,VALID,0,VALID,95.8874,VALID,0,VALID,24.5212,VALID,334,VALID,0.0164062,
2010-04-01, 00:38:05,VALID,1004.45,VALID,0,VALID,95.8874,VALID,0,VALID,24.5406,VALID,334,VALID,0.239844,
2010-04-01, 00:39:05,VALID,1004.43,VALID,0,VALID,95.8874,VALID,0,VALID,24.5212,VALID,334,VALID,0.00585938,
2010-04-01, 00:40:05,VALID,1004.42,VALID,0,VALID,95.8874,VALID,0,VALID,24.5388,VALID,341,VALID,0.352344,
2010-04-01, 00:41:05,VALID,1004.4,VALID,0,VALID,95.8874,VALID,0,VALID,24.5796,VALID,343,VALID,0.708203,
2010-04-01, 00:42:05,VALID,1004.41,VALID,0,VALID,95.8416,VALID,0,VALID,24.599,VALID,309,VALID,0.582812,
2010-04-01, 00:43:05,VALID,1004.37,VALID,0,VALID,95.8493,VALID,0,VALID,24.638,VALID,300,VALID,0.0457031,
2010-04-01, 00:44:05,VALID,1004.37,VALID,0,VALID,95.8111,VALID,0,VALID,24.6769,VALID,348,VALID,0.430469,
2010-04-01, 00:45:05,VALID,1004.36,VALID,0,VALID,95.7806,VALID,0,VALID,24.6769,VALID,353,VALID,0.620313,
2010-04-01, 00:46:05,VALID,1004.34,VALID,0,VALID,95.7424,VALID,0,VALID,24.6945,VALID,342,VALID,0.740625,
2010-04-01, 00:47:05,VALID,1004.34,VALID,0,VALID,95.689,VALID,0,VALID,24.7529,VALID,351,VALID,0.611719,
2010-04-01, 00:48:05,VALID,1004.36,VALID,0,VALID,95.6433,VALID,0,VALID,24.7919,VALID,9,VALID,0.585156,
2010-04-01, 00:49:05,VALID,1004.35,VALID,0,VALID,95.5517,VALID,0,VALID,24.8308,VALID,6,VALID,0.680469,
2010-04-01, 00:50:05,VALID,1004.34,VALID,0,VALID,95.4297,VALID,0,VALID,24.9106,VALID,321,VALID,0.590234,
2010-04-01, 00:51:05,VALID,1004.35,VALID,0,VALID,95.2771,VALID,0,VALID,24.9087,VALID,345,VALID,0.530078,
2010-04-01, 00:52:05,VALID,1004.35,VALID,0,VALID,95.0787,VALID,0,VALID,24.969,VALID,345,VALID,0.1125,
2010-04-01, 00:53:05,VALID,1004.33,VALID,0,VALID,94.827,VALID,0,VALID,24.969,VALID,345,VALID,0.444922,
2010-04-01, 00:54:05,VALID,1004.32,VALID,0,VALID,94.5676,VALID,0,VALID,24.9885,VALID,355,VALID,0.641797,
2010-04-01, 00:55:05,VALID,1004.32,VALID,0,VALID,94.3158,VALID,0,VALID,24.9885,VALID,353,VALID,0.507031,
2010-04-01, 00:56:05,VALID,1004.3,VALID,0,VALID,94.148,VALID,0,VALID,24.969,VALID,348,VALID,0.363672,
2010-04-01, 00:57:05,VALID,1004.29,VALID,0,VALID,94.0412,VALID,0,VALID,24.9476,VALID,348,VALID,0.255469,
2010-04-01, 00:58:05,VALID,1004.25,VALID,0,VALID,93.9497,VALID,0,VALID,24.9282,VALID,348,VALID,0.492969,
2010-04-01, 00:59:05,VALID,1004.25,VALID,0,VALID,93.9268,VALID,0,VALID,24.969,VALID,348,VALID,0.533594,
2010-04-01, 01:00:05,VALID,1004.26,VALID,0,VALID,93.8734,VALID,0,VALID,24.9476,VALID,348,VALID,0.440234,
2010-04-01, 01:01:05,VALID,1004.26,VALID,0,VALID,93.7818,VALID,0,VALID,24.9476,VALID,348,VALID,0.528906,
2010-04-01, 01:02:05,VALID,1004.22,VALID,0,VALID,93.7284,VALID,0,VALID,24.9495,VALID,349,VALID,0.700391,
2010-04-01, 01:03:05,VALID,1004.23,VALID,0,VALID,93.7666,VALID,0.100563,VALID,24.9476,VALID,346,VALID,0.580469,
2010-04-01, 01:04:05,VALID,1004.21,VALID,0,VALID,93.7589,VALID,0,VALID,24.969,VALID,355,VALID,0.55625,
2010-04-01, 01:05:05,VALID,1004.2,VALID,0,VALID,93.7361,VALID,0,VALID,24.969,VALID,3,VALID,0.620313,
2010-04-01, 01:06:05,VALID,1004.22,VALID,0,VALID,93.7818,VALID,0,VALID,24.9885,VALID,1,VALID,0.369141,
2010-04-01, 01:07:05,VALID,1004.23,VALID,0,VALID,93.7971,VALID,0,VALID,24.9866,VALID,1,VALID,0.548437,
2010-04-01, 01:08:05,VALID,1004.24,VALID,0,VALID,93.7513,VALID,0,VALID,25.0079,VALID,1,VALID,0.504297,
2010-04-01, 01:09:05,VALID,1004.23,VALID,0,VALID,93.7284,VALID,0,VALID,24.9885,VALID,14,VALID,0.476953,
2010-04-01, 01:10:05,VALID,1004.23,VALID,0,VALID,93.6598,VALID,0,VALID,24.9671,VALID,21,VALID,0.3125,
2010-04-01, 01:11:05,VALID,1004.21,VALID,0,VALID,93.6521,VALID,0,VALID,24.9476,VALID,21,VALID,0,
2010-04-01, 01:12:05,VALID,1004.22,VALID,0,VALID,93.675,VALID,0,VALID,24.969,VALID,21,VALID,0.124219,
2010-04-01, 01:13:05,VALID,1004.21,VALID,0,VALID,93.7361,VALID,0,VALID,24.9476,VALID,20,VALID,0.280859,
2010-04-01, 01:14:05,VALID,1004.22,VALID,0,VALID,93.8276,VALID,0,VALID,24.9282,VALID,13,VALID,0.398828,
2010-04-01, 01:15:05,VALID,1004.24,VALID,0,VALID,93.7437,VALID,0,VALID,24.8892,VALID,13,VALID,0.405469,
2010-04-01, 01:16:05,VALID,1004.27,VALID,0,VALID,93.6674,VALID,0,VALID,24.8716,VALID,13,VALID,0.413281,
2010-04-01, 01:17:05,VALID,1004.27,VALID,0,VALID,93.6521,VALID,0,VALID,24.8132,VALID,13,VALID,0.435156,
2010-04-01, 01:18:05,VALID,1004.3,VALID,0,VALID,93.7055,VALID,0,VALID,24.7529,VALID,13,VALID,0.3625,
2010-04-01, 01:19:05,VALID,1004.3,VALID,0,VALID,93.8352,VALID,0,VALID,24.714,VALID,13,VALID,0.578516,
2010-04-01, 01:20:05,VALID,1004.3,VALID,0,VALID,93.9344,VALID,0,VALID,24.6556,VALID,13,VALID,0.472266,
2010-04-01, 01:21:05,VALID,1004.27,VALID,0,VALID,94.087,VALID,0,VALID,24.6574,VALID,353,VALID,0.706641,
2010-04-01, 01:22:05,VALID,1004.29,VALID,0,VALID,94.2777,VALID,0,VALID,24.6185,VALID,353,VALID,0.992188,
2010-04-01, 01:23:05,VALID,1004.27,VALID,0,VALID,94.6515,VALID,0,VALID,24.7159,VALID,2,VALID,0.9125,
2010-04-01, 01:24:04,VALID,1004.23,VALID,0,VALID,94.682,VALID,0,VALID,24.6945,VALID,355,VALID,0.621094,
2010-04-01, 01:25:04,VALID,1004.23,VALID,0,VALID,94.7202,VALID,0,VALID,24.7335,VALID,356,VALID,1.02148,
2010-04-01, 01:26:04,VALID,1004.22,VALID,0,VALID,94.8117,VALID,0,VALID,24.7919,VALID,353,VALID,0.930078,
2010-04-01, 01:27:04,VALID,1004.21,VALID,0,VALID,94.8346,VALID,0,VALID,24.8892,VALID,304,VALID,0.398828,
2010-04-01, 01:28:04,VALID,1004.19,VALID,0,VALID,94.7278,VALID,0,VALID,24.9495,VALID,300,VALID,0.818359,
2010-04-01, 01:29:04,VALID,1004.14,VALID,0,VALID,94.5142,VALID,0,VALID,25.006,VALID,288,VALID,1.50273,
2010-04-01, 01:30:04,VALID,1004.12,VALID,0,VALID,94.1633,VALID,0,VALID,25.0839,VALID,348,VALID,0.719531,
2010-04-01, 01:31:04,VALID,1004.12,VALID,0,VALID,93.7666,VALID,0,VALID,25.1229,VALID,310,VALID,0.320703,
2010-04-01, 01:32:04,VALID,1004.1,VALID,0,VALID,93.4156,VALID,0,VALID,25.1813,VALID,311,VALID,0.373828,
2010-04-01, 01:33:04,VALID,1004.12,VALID,0,VALID,93.1791,VALID,0,VALID,25.2027,VALID,350,VALID,0.616016,
2010-04-01, 01:34:04,VALID,1004.08,VALID,0,VALID,93.0189,VALID,0,VALID,25.2221,VALID,346,VALID,0.801953,
2010-04-01, 01:35:04,VALID,1004.06,VALID,0,VALID,92.8969,VALID,0,VALID,25.2397,VALID,344,VALID,0.56875,
2010-04-01, 01:36:04,VALID,1004.03,VALID,0,VALID,92.7443,VALID,0,VALID,25.2397,VALID,360,VALID,0.607813,
2010-04-01, 01:37:04,VALID,1004.06,VALID,0,VALID,92.5612,VALID,0,VALID,25.2397,VALID,346,VALID,0.581641,
2010-04-01, 01:38:04,VALID,1004.07,VALID,0,VALID,92.2255,VALID,0,VALID,25.2416,VALID,349,VALID,0.254687,
2010-04-01, 01:39:04,VALID,1004.06,VALID,0,VALID,91.8441,VALID,0,VALID,25.2221,VALID,5,VALID,0.306641,
2010-04-01, 01:40:04,VALID,1004.04,VALID,0,VALID,90.7989,VALID,0,VALID,25.2027,VALID,356,VALID,0.659375,
2010-04-01, 01:41:04,VALID,1004.05,VALID,0,VALID,89.3342,VALID,0,VALID,25.1813,VALID,360,VALID,0.665625,
2010-04-01, 01:42:04,VALID,1004.01,VALID,0,VALID,88.5713,VALID,0,VALID,25.2221,VALID,349,VALID,0.783203,
2010-04-01, 01:43:04,VALID,1004.04,VALID,0,VALID,88.0907,VALID,0,VALID,25.2027,VALID,350,VALID,0.955859,
2010-04-01, 01:44:04,VALID,1004,VALID,0,VALID,88.0068,VALID,0,VALID,25.1813,VALID,334,VALID,0.41875,
2010-04-01, 01:45:04,VALID,1003.98,VALID,0,VALID,87.961,VALID,0,VALID,25.1832,VALID,320,VALID,0.246484,
2010-04-01, 01:46:04,VALID,1003.96,VALID,0,VALID,88.022,VALID,0,VALID,25.1832,VALID,15,VALID,0.286328,
2010-04-01, 01:47:04,VALID,1003.95,VALID,0,VALID,87.9381,VALID,0,VALID,25.1423,VALID,7,VALID,0.476953,
2010-04-01, 01:48:04,VALID,1003.93,VALID,0,VALID,88.1365,VALID,0,VALID,25.1248,VALID,340,VALID,0.142188,
2010-04-01, 01:49:04,VALID,1003.93,VALID,0,VALID,88.1517,VALID,0,VALID,25.1248,VALID,340,VALID,0.211719,
2010-04-01, 01:50:04,VALID,1003.9,VALID,0,VALID,88.167,VALID,0,VALID,25.0644,VALID,345,VALID,0.357422,
2010-04-01, 01:51:04,VALID,1003.91,VALID,0,VALID,88.0144,VALID,0.100563,VALID,25.045,VALID,358,VALID,0.760547,
2010-04-01, 01:52:04,VALID,1003.95,VALID,0,VALID,87.6711,VALID,0,VALID,25.0255,VALID,321,VALID,0.486719,
2010-04-01, 01:53:04,VALID,1003.93,VALID,0,VALID,87.6101,VALID,0.100563,VALID,25.045,VALID,350,VALID,0.648438,
2010-04-01, 01:54:04,VALID,1003.91,VALID,0,VALID,87.7398,VALID,0,VALID,25.006,VALID,353,VALID,0.253516,
2010-04-01, 01:55:04,VALID,1003.92,VALID,0,VALID,87.8847,VALID,0,VALID,25.006,VALID,350,VALID,0.16875,
2010-04-01, 01:56:04,VALID,1003.92,VALID,0,VALID,87.7321,VALID,0.100563,VALID,24.9671,VALID,346,VALID,0.747266,
2010-04-01, 01:57:04,VALID,1003.9,VALID,0,VALID,87.7398,VALID,0,VALID,24.9671,VALID,346,VALID,0.349609,
2010-04-01, 01:58:04,VALID,1003.91,VALID,0,VALID,87.9762,VALID,0,VALID,24.969,VALID,26,VALID,0.344141,
2010-04-01, 01:59:04,VALID,1003.87,VALID,0,VALID,87.9076,VALID,0,VALID,24.9282,VALID,355,VALID,0.507031,
2010-04-01, 02:00:04,VALID,1003.88,VALID,0,VALID,87.9991,VALID,0,VALID,24.93,VALID,358,VALID,0.705078,
2010-04-01, 02:01:04,VALID,1003.84,VALID,0,VALID,88.2967,VALID,0,VALID,24.9106,VALID,1,VALID,0.078125,
2010-04-01, 02:02:04,VALID,1003.85,VALID,0,VALID,88.3272,VALID,0,VALID,24.9106,VALID,355,VALID,0.908594,
2010-04-01, 02:03:04,VALID,1003.84,VALID,0,VALID,88.2814,VALID,0,VALID,24.8697,VALID,350,VALID,1.00742,
2010-04-01, 02:04:04,VALID,1003.81,VALID,0,VALID,88.3119,VALID,0,VALID,24.8503,VALID,347,VALID,0.439063,
2010-04-01, 02:05:04,VALID,1003.83,VALID,0,VALID,88.4416,VALID,0,VALID,24.8503,VALID,336,VALID,0.338281,
2010-04-01, 02:06:04,VALID,1003.81,VALID,0,VALID,88.5484,VALID,0,VALID,24.8503,VALID,346,VALID,0.676953,
2010-04-01, 02:07:04,VALID,1003.84,VALID,0,VALID,88.4798,VALID,0.100563,VALID,24.8113,VALID,343,VALID,0.552344,
2010-04-01, 02:08:04,VALID,1003.83,VALID,0,VALID,88.5637,VALID,0,VALID,24.7919,VALID,301,VALID,0.570313,
2010-04-01, 02:09:04,VALID,1003.81,VALID,0,VALID,88.4874,VALID,0,VALID,24.7919,VALID,5,VALID,0.73125,
2010-04-01, 02:10:04,VALID,1003.84,VALID,0,VALID,88.5179,VALID,0,VALID,24.7919,VALID,325,VALID,0.320703,
2010-04-01, 02:11:04,VALID,1003.82,VALID,0,VALID,88.4798,VALID,0,VALID,24.7937,VALID,317,VALID,0.391797,
2010-04-01, 02:12:04,VALID,1003.83,VALID,0,VALID,88.495,VALID,0.100563,VALID,24.7743,VALID,346,VALID,0.324609,
2010-04-01, 02:13:04,VALID,1003.86,VALID,0,VALID,88.6628,VALID,0,VALID,24.7548,VALID,346,VALID,0.381641,
2010-04-01, 02:14:04,VALID,1003.82,VALID,0,VALID,88.6781,VALID,0,VALID,24.7335,VALID,355,VALID,0.730859,
2010-04-01, 02:15:04,VALID,1003.85,VALID,0,VALID,88.5789,VALID,0,VALID,24.714,VALID,338,VALID,0.808984,
2010-04-01, 02:16:04,VALID,1003.82,VALID,0,VALID,88.4798,VALID,0,VALID,24.7548,VALID,345,VALID,0.448047,
2010-04-01, 02:17:04,VALID,1003.84,VALID,0,VALID,88.495,VALID,0,VALID,24.7548,VALID,345,VALID,0.436719,
2010-04-01, 02:18:04,VALID,1003.79,VALID,0,VALID,88.3653,VALID,0,VALID,24.7548,VALID,349,VALID,0.740234,
2010-04-01, 02:19:04,VALID,1003.77,VALID,0,VALID,87.9991,VALID,0,VALID,24.7529,VALID,357,VALID,1.02773,
2010-04-01, 02:20:04,VALID,1003.78,VALID,0,VALID,87.7169,VALID,0,VALID,24.7529,VALID,338,VALID,0.744922,
2010-04-01, 02:21:04,VALID,1003.78,VALID,0,VALID,87.6253,VALID,0,VALID,24.7724,VALID,359,VALID,0.470313,
2010-04-01, 02:22:04,VALID,1003.76,VALID,0,VALID,87.1371,VALID,0,VALID,24.7919,VALID,346,VALID,0.633203,
2010-04-01, 02:23:04,VALID,1003.76,VALID,0,VALID,86.8167,VALID,0,VALID,24.8327,VALID,338,VALID,0.435547,
2010-04-01, 02:24:04,VALID,1003.76,VALID,0,VALID,86.6107,VALID,0,VALID,24.8522,VALID,11,VALID,0.519922,
2010-04-01, 02:25:04,VALID,1003.73,VALID,0,VALID,86.2903,VALID,0,VALID,24.8522,VALID,343,VALID,0.528906,
2010-04-01, 02:26:04,VALID,1003.77,VALID,0,VALID,86.3284,VALID,0,VALID,24.8503,VALID,357,VALID,0.265625,
2010-04-01, 02:27:04,VALID,1003.77,VALID,0,VALID,86.0538,VALID,0,VALID,24.8503,VALID,332,VALID,1.05352,
2010-04-01, 02:28:04,VALID,1003.78,VALID,0,VALID,86.0385,VALID,0,VALID,24.8892,VALID,346,VALID,0.492578,
2010-04-01, 02:29:04,VALID,1003.77,VALID,0,VALID,85.7944,VALID,0,VALID,24.9106,VALID,352,VALID,1.08906,
2010-04-01, 02:30:04,VALID,1003.79,VALID,0,VALID,85.8707,VALID,0,VALID,24.93,VALID,339,VALID,0.532422,
2010-04-01, 02:31:04,VALID,1003.79,VALID,0,VALID,85.8402,VALID,0,VALID,24.8892,VALID,347,VALID,1.12734,
2010-04-01, 02:32:04,VALID,1003.79,VALID,0,VALID,85.8783,VALID,0,VALID,24.9282,VALID,354,VALID,0.539453,
2010-04-01, 02:33:04,VALID,1003.81,VALID,0,VALID,85.8783,VALID,0,VALID,24.93,VALID,349,VALID,0.640234,
2010-04-01, 02:34:04,VALID,1003.78,VALID,0,VALID,85.6418,VALID,0,VALID,24.93,VALID,350,VALID,0.600781,
2010-04-01, 02:35:04,VALID,1003.8,VALID,0,VALID,85.7486,VALID,0,VALID,24.93,VALID,333,VALID,0.667188,
2010-04-01, 02:36:04,VALID,1003.81,VALID,0,VALID,85.7105,VALID,0,VALID,24.93,VALID,350,VALID,0.688281,
2010-04-01, 02:37:04,VALID,1003.81,VALID,0,VALID,85.3061,VALID,0,VALID,24.93,VALID,350,VALID,0.585938,
2010-04-01, 02:38:04,VALID,1003.81,VALID,0,VALID,85.2451,VALID,0,VALID,24.9671,VALID,332,VALID,0.538672,
2010-04-01, 02:39:04,VALID,1003.81,VALID,0,VALID,84.856,VALID,0,VALID,25.0469,VALID,345,VALID,0.951172,
2010-04-01, 02:40:04,VALID,1003.82,VALID,0,VALID,84.5509,VALID,0.100563,VALID,25.0839,VALID,340,VALID,0.423828,
2010-04-01, 02:41:04,VALID,1003.81,VALID,0,VALID,84.3907,VALID,0,VALID,25.1442,VALID,360,VALID,0.858594,
2010-04-01, 02:42:04,VALID,1003.84,VALID,0,VALID,84.5204,VALID,0,VALID,25.1813,VALID,2,VALID,0.530469,
2010-04-01, 02:43:04,VALID,1003.84,VALID,0,VALID,84.322,VALID,0,VALID,25.2007,VALID,339,VALID,0.685547,
2010-04-01, 02:44:04,VALID,1003.82,VALID,0,VALID,84.3144,VALID,0,VALID,25.2202,VALID,14,VALID,0.676953,
2010-04-01, 02:45:04,VALID,1003.84,VALID,0,VALID,84.4822,VALID,0,VALID,25.2806,VALID,328,VALID,0.401953,
2010-04-01, 02:46:04,VALID,1003.87,VALID,0,VALID,84.6272,VALID,0,VALID,25.2592,VALID,348,VALID,0.789063,
2010-04-01, 02:47:04,VALID,1003.87,VALID,0,VALID,85.1002,VALID,0,VALID,25.2786,VALID,351,VALID,0.843359,
2010-04-01, 02:48:04,VALID,1003.89,VALID,0,VALID,85.0468,VALID,0.100563,VALID,25.2981,VALID,357,VALID,0.466016,
2010-04-01, 02:49:04,VALID,1003.88,VALID,0,VALID,85.2756,VALID,0,VALID,25.2786,VALID,335,VALID,0.507813,
2010-04-01, 02:50:04,VALID,1003.89,VALID,0,VALID,85.5503,VALID,0,VALID,25.2786,VALID,346,VALID,0.725,
2010-04-01, 02:51:04,VALID,1003.88,VALID,0,VALID,85.8783,VALID,0,VALID,25.3,VALID,354,VALID,0.371875,
2010-04-01, 02:52:04,VALID,1003.89,VALID,0,VALID,85.947,VALID,0,VALID,25.2572,VALID,352,VALID,0.172266,
2010-04-01, 02:53:04,VALID,1003.87,VALID,0,VALID,86.0156,VALID,0,VALID,25.2786,VALID,319,VALID,0.607422,
2010-04-01, 02:54:04,VALID,1003.85,VALID,0,VALID,85.7334,VALID,0.100563,VALID,25.2806,VALID,339,VALID,0.4375,
2010-04-01, 02:55:04,VALID,1003.83,VALID,0,VALID,85.6952,VALID,0,VALID,25.2806,VALID,338,VALID,1.00898,
2010-04-01, 02:56:04,VALID,1003.83,VALID,0,VALID,85.8478,VALID,0,VALID,25.2806,VALID,355,VALID,0.670313,
2010-04-01, 02:57:04,VALID,1003.83,VALID,0,VALID,85.9851,VALID,0.100563,VALID,25.2611,VALID,328,VALID,0.334766,
2010-04-01, 02:58:04,VALID,1003.82,VALID,0,VALID,86.0004,VALID,0,VALID,25.2202,VALID,5,VALID,0.963672,
2010-04-01, 02:59:04,VALID,1003.84,VALID,0,VALID,86.0995,VALID,0.100563,VALID,25.2221,VALID,322,VALID,0.430859,
2010-04-01, 03:00:04,VALID,1003.83,VALID,0,VALID,86.2826,VALID,0,VALID,25.1813,VALID,319,VALID,0.487891,
2010-04-01, 03:01:04,VALID,1003.84,VALID,0,VALID,86.4123,VALID,0,VALID,25.1618,VALID,342,VALID,0.723437,
2010-04-01, 03:02:04,VALID,1003.83,VALID,0,VALID,86.4886,VALID,0,VALID,25.1637,VALID,348,VALID,1.22578,
2010-04-01, 03:03:04,VALID,1003.83,VALID,0,VALID,86.6641,VALID,0.100563,VALID,25.1423,VALID,6,VALID,0.997266,
2010-04-01, 03:04:04,VALID,1003.81,VALID,0,VALID,86.9006,VALID,0,VALID,25.1637,VALID,322,VALID,0.453516,
2010-04-01, 03:05:04,VALID,1003.77,VALID,0,VALID,87.0455,VALID,0.100563,VALID,25.1442,VALID,346,VALID,0.458203,
2010-04-01, 03:06:04,VALID,1003.75,VALID,0,VALID,87.2057,VALID,0,VALID,25.1229,VALID,341,VALID,0.934766,
2010-04-01, 03:07:04,VALID,1003.72,VALID,0,VALID,87.3583,VALID,0,VALID,25.1248,VALID,351,VALID,0.753906,
2010-04-01, 03:08:04,VALID,1003.71,VALID,0,VALID,87.5567,VALID,0,VALID,25.1248,VALID,337,VALID,0.253516,
2010-04-01, 03:09:04,VALID,1003.69,VALID,0,VALID,87.7169,VALID,0.100563,VALID,25.1229,VALID,314,VALID,0.153125,
2010-04-01, 03:10:04,VALID,1003.73,VALID,0,VALID,87.8542,VALID,0,VALID,25.1034,VALID,337,VALID,0.470313,
2010-04-01, 03:11:04,VALID,1003.74,VALID,0,VALID,87.8313,VALID,0,VALID,25.1442,VALID,345,VALID,0.776953,
2010-04-01, 03:12:04,VALID,1003.74,VALID,0,VALID,87.8237,VALID,0,VALID,25.1618,VALID,316,VALID,0.272266,
2010-04-01, 03:13:04,VALID,1003.73,VALID,0,VALID,87.9228,VALID,0,VALID,25.2027,VALID,252,VALID,0.217187,
2010-04-01, 03:14:04,VALID,1003.76,VALID,0,VALID,87.816,VALID,0,VALID,25.2007,VALID,354,VALID,0.674219,
2010-04-01, 03:15:04,VALID,1003.76,VALID,0,VALID,87.6863,VALID,0,VALID,25.2806,VALID,350,VALID,1.07656,
2010-04-01, 03:16:04,VALID,1003.77,VALID,0,VALID,87.6329,VALID,0,VALID,25.2981,VALID,352,VALID,0,
2010-04-01, 03:17:04,VALID,1003.77,VALID,0,VALID,87.7321,VALID,0,VALID,25.339,VALID,316,VALID,0.616797,
2010-04-01, 03:18:04,VALID,1003.79,VALID,0,VALID,87.6787,VALID,0,VALID,25.3176,VALID,286,VALID,0.564453,
2010-04-01, 03:19:04,VALID,1003.77,VALID,0,VALID,87.5643,VALID,0,VALID,25.3195,VALID,296,VALID,0.404687,
2010-04-01, 03:20:04,VALID,1003.77,VALID,0,VALID,87.549,VALID,0,VALID,25.3176,VALID,296,VALID,0.205859,
2010-04-01, 03:21:04,VALID,1003.78,VALID,0,VALID,87.5261,VALID,0,VALID,25.339,VALID,291,VALID,0.724609,
2010-04-01, 03:22:04,VALID,1003.78,VALID,0,VALID,87.7092,VALID,0,VALID,25.3176,VALID,296,VALID,0.337109,
2010-04-01, 03:23:04,VALID,1003.79,VALID,0,VALID,87.8389,VALID,0,VALID,25.3176,VALID,294,VALID,0.349219,
2010-04-01, 03:24:04,VALID,1003.8,VALID,0,VALID,87.8313,VALID,0.100563,VALID,25.337,VALID,354,VALID,0.303516,
2010-04-01, 03:25:04,VALID,1003.8,VALID,0,VALID,87.9152,VALID,0,VALID,25.3176,VALID,353,VALID,0.0625,
2010-04-01, 03:26:04,VALID,1003.82,VALID,0,VALID,88.1136,VALID,0.100563,VALID,25.337,VALID,327,VALID,0.378125,
2010-04-01, 03:27:04,VALID,1003.85,VALID,0,VALID,87.9457,VALID,0,VALID,25.3584,VALID,293,VALID,0.532422,
2010-04-01, 03:28:04,VALID,1003.85,VALID,0,VALID,87.9457,VALID,0,VALID,25.3779,VALID,307,VALID,0.646484,
2010-04-01, 03:29:04,VALID,1003.83,VALID,0,VALID,87.8542,VALID,0,VALID,25.3565,VALID,352,VALID,0.813672,
2010-04-01, 03:30:04,VALID,1003.83,VALID,0,VALID,87.8084,VALID,0,VALID,25.3565,VALID,354,VALID,0.809766,
2010-04-01, 03:31:04,VALID,1003.88,VALID,0,VALID,87.816,VALID,0,VALID,25.3565,VALID,342,VALID,0.374609,
2010-04-01, 03:32:04,VALID,1003.9,VALID,0,VALID,87.9076,VALID,0,VALID,25.3974,VALID,342,VALID,0.00820312,
2010-04-01, 03:33:04,VALID,1003.92,VALID,0,VALID,87.8923,VALID,0,VALID,25.3565,VALID,271,VALID,0.503516,
2010-04-01, 03:34:04,VALID,1003.9,VALID,0,VALID,88.0678,VALID,0,VALID,25.3565,VALID,19,VALID,0.395703,
2010-04-01, 03:35:04,VALID,1003.94,VALID,0,VALID,88.2051,VALID,0,VALID,25.3584,VALID,336,VALID,0.444531,
2010-04-01, 03:36:04,VALID,1003.97,VALID,0,VALID,88.4492,VALID,0,VALID,25.337,VALID,267,VALID,0.494531,
2010-04-01, 03:37:04,VALID,1003.96,VALID,0,VALID,88.3272,VALID,0,VALID,25.3584,VALID,358,VALID,0.971484,
2010-04-01, 03:38:04,VALID,1003.99,VALID,0,VALID,88.2967,VALID,0,VALID,25.4363,VALID,335,VALID,1.24297,
2010-04-01, 03:39:04,VALID,1003.99,VALID,0,VALID,87.4727,VALID,0,VALID,25.5337,VALID,267,VALID,0.709375,
2010-04-01, 03:40:04,VALID,1004,VALID,0,VALID,87.1752,VALID,0,VALID,25.5707,VALID,288,VALID,0.85,
2010-04-01, 03:41:04,VALID,1003.97,VALID,0,VALID,86.8929,VALID,0,VALID,25.6116,VALID,321,VALID,0.489062,
2010-04-01, 03:42:04,VALID,1004.02,VALID,0,VALID,86.9616,VALID,0,VALID,25.5921,VALID,338,VALID,0.505078,
2010-04-01, 03:43:04,VALID,1004.04,VALID,0,VALID,87.2973,VALID,0,VALID,25.5532,VALID,325,VALID,0.460547,
2010-04-01, 03:44:04,VALID,1004.06,VALID,0,VALID,87.5872,VALID,0,VALID,25.5532,VALID,266,VALID,0.416406,
2010-04-01, 03:45:04,VALID,1004.09,VALID,0,VALID,87.1142,VALID,0,VALID,25.5142,VALID,277,VALID,1.0332,